Sherbrooke, Quebec

5:25 PM EDT on April 27, 2017 (GMT -0400)
Sherbrooke

Weather History for CYSC - October, 2012

Change the Weather History Date:

Friday, October 12, 2012

  Actual Average Record
Temperature  
Mean Temperature 36 °F -  
Max Temperature 44 °F 48 °F 75 °F (2003)
Min Temperature 28 °F 29 °F 23 °F (1996)
Degree Days  
Heating Degree Days 28    
Moisture  
Dew Point 32 °F    
Average Humidity 75    
Maximum Humidity 93    
Minimum Humidity 45    
Precipitation  
Precipitation 0.04 in 0.12 in - ()
Sea Level Pressure  
Sea Level Pressure 30.04 in    
Wind  
Wind Speed 10 mph ()    
Max Wind Speed 24 mph    
Max Gust Speed 36 mph    
Visibility 8.7 miles    
Events Rain    
Averages and records for this station are not official NWS values.
T = Trace of Precipitation, MM = Missing Value Source: Averaged Metar Reports

Daily Weather History Graph

Daily Weather History Graph

Search for Another Location

Airport or City:

Trip Planner

Search our weather history database for the weather conditions in past years. The results will help you decide how hot, cold, wet, or windy it might be!

Date:

Astronomy

Oct. 12, 2012 Rise Set
Actual Time 6:59 AM EDT 6:05 PM EDT
Civil Twilight 6:29 AM EDT 6:35 PM EDT
Nautical Twilight 5:55 AM EDT 7:09 PM EDT
Astronomical Twilight 5:21 AM EDT 7:43 PM EDT
Moon 3:31 AM EDT (10/12) 4:20 PM EDT (10/12)
Length of Visible Light 12h 05m
Length of Day
11h 06m
Waning Crescent, 11% of the Moon is Illuminated
Oct 12
Waning Crescent
Oct 15
New
Oct 21
First Quarter
Oct 29
Full
Nov 6
Last Quarter

Hourly Weather History & Observations

Time (EDT) Temp. Windchill Dew Point Humidity Pressure Visibility Wind Dir Wind Speed Gust Speed Precip Events Conditions
12:00 AM 41.0 °F 35.2 °F 35.6 °F 81% 29.95 in 9.0 mi South 9.2 mph - N/A Rain Light Rain
1:43 AM 41.0 °F 34.7 °F 37.4 °F 87% 29.88 in 9.0 mi South 10.4 mph 21.9 mph N/A   Overcast
1:50 AM 42.8 °F 37.0 °F 37.4 °F 81% 29.88 in 9.0 mi South 10.4 mph 19.6 mph N/A Rain Light Rain
2:00 AM 42 °F - 37 °F 75% 29.88 in 10 mi South 11.5 mph - - Rain Light Rain
2:00 AM 42.8 °F 36.6 °F 37.4 °F 81% 29.88 in 9.0 mi South 11.5 mph 20.7 mph N/A Rain Light Rain
2:35 AM 42.8 °F 38.6 °F 35.6 °F 76% 29.87 in 9.0 mi SSW 6.9 mph - N/A   Overcast
2:54 AM 42.8 °F 39.3 °F 37.4 °F 81% 29.88 in 9.0 mi WSW 5.8 mph - N/A Rain Light Rain
3:00 AM 42.8 °F 38.6 °F 37.4 °F 81% 29.88 in 9.0 mi WNW 6.9 mph - N/A Rain Light Rain
3:35 AM 42.8 °F 38.6 °F 39.2 °F 87% 29.89 in 7.0 mi West 6.9 mph - N/A Rain Light Rain
3:38 AM 41.0 °F 35.2 °F 39.2 °F 93% 29.89 in 4.0 mi West 9.2 mph - N/A Rain Rain
3:48 AM 41.0 °F 35.2 °F 39.2 °F 93% 29.89 in 6.0 mi West 9.2 mph 19.6 mph N/A Rain Light Rain
4:00 AM 41.0 °F 35.2 °F 39.2 °F 93% 29.90 in 9.0 mi West 9.2 mph - N/A Rain Light Rain
4:19 AM 41.0 °F 35.2 °F 39.2 °F 93% 29.89 in 9.0 mi SW 9.2 mph - N/A Rain Light Rain
4:31 AM 41.0 °F 34.7 °F 39.2 °F 93% 29.90 in 9.0 mi WSW 10.4 mph - N/A   Overcast
4:53 AM 41.0 °F 35.8 °F 39.2 °F 93% 29.90 in 9.0 mi SW 8.1 mph - N/A Rain Light Rain
5:00 AM 41 °F - 39 °F 91% 29.91 in 10 mi SW 9.2 mph - - Rain Light Rain
5:00 AM 41.0 °F 35.2 °F 39.2 °F 93% 29.90 in 9.0 mi SW 9.2 mph - N/A Rain Light Rain
5:13 AM 41.0 °F 34.3 °F 39.2 °F 93% 29.89 in 9.0 mi SSW 11.5 mph - N/A   Overcast
5:17 AM 41.0 °F 35.8 °F 39.2 °F 93% 29.90 in 9.0 mi SW 8.1 mph - N/A Rain Light Rain
5:48 AM 41.0 °F 34.7 °F 37.4 °F 87% 29.91 in 9.0 mi SW 10.4 mph - N/A Rain Light Rain
5:49 AM 41.0 °F 35.2 °F 37.4 °F 87% 29.91 in 9.0 mi SW 9.2 mph - N/A Rain Light Rain
5:51 AM 41.0 °F 35.2 °F 39.2 °F 93% 29.91 in 9.0 mi SW 9.2 mph - N/A Rain Light Rain
5:59 AM 41.0 °F 34.7 °F 39.2 °F 93% 29.91 in 9.0 mi SW 10.4 mph - N/A   Overcast
6:00 AM 41.0 °F 35.2 °F 39.2 °F 93% 29.91 in 9.0 mi SW 9.2 mph - N/A   Overcast
6:09 AM 41.0 °F 34.7 °F 39.2 °F 93% 29.91 in 9.0 mi WSW 10.4 mph - N/A   Overcast
6:16 AM 41.0 °F 34.3 °F 37.4 °F 87% 29.91 in 9.0 mi WSW 11.5 mph 18.4 mph N/A   Overcast
7:00 AM 41.0 °F 31.6 °F 35.6 °F 81% 29.94 in 9.0 mi West 20.7 mph 29.9 mph N/A   Overcast
7:14 AM 39.2 °F 29.0 °F 33.8 °F 81% 29.96 in 9.0 mi West 21.9 mph 35.7 mph N/A   Overcast
8:00 AM 39 °F - 33 °F 70% 30.00 in 10 mi West 17.3 mph - -   Clear
8:00 AM 39.2 °F 30.5 °F 32.0 °F 75% 30.00 in 9.0 mi West 16.1 mph 26.5 mph N/A   Overcast
8:18 AM 39.2 °F 30.8 °F 32.0 °F 75% 30.01 in 9.0 mi West 15.0 mph 23.0 mph N/A   Overcast
8:26 AM 37.4 °F 26.6 °F 33.8 °F 87% 30.01 in 9.0 mi West 21.9 mph 31.1 mph N/A Rain Light Rain
8:39 AM 37.4 °F 28.2 °F 32.0 °F 81% 30.03 in 9.0 mi WNW 16.1 mph 32.2 mph N/A   Overcast
9:00 AM 35.6 °F 24.8 °F 30.2 °F 81% 30.05 in 9.0 mi WNW 19.6 mph 28.8 mph N/A   Overcast
9:28 AM 39.2 °F 32.5 °F 30.2 °F 70% 30.06 in 9.0 mi NW 10.4 mph 19.6 mph N/A   Scattered Clouds
11:00 AM 40 °F - 26 °F 45% 30.09 in 10 mi NW 15.0 mph - -   Clear
11:00 AM 41.0 °F 33.9 °F 26.6 °F 57% 30.09 in 9.0 mi NW 12.7 mph 24.2 mph N/A   Mostly Cloudy
11:49 AM 44.6 °F 35.7 °F 26.6 °F 49% 30.09 in 9.0 mi WNW 24.2 mph - N/A   Mostly Cloudy
12:00 PM 42.8 °F 35.8 °F 26.6 °F 53% 30.09 in 9.0 mi WNW 13.8 mph 31.1 mph N/A   Mostly Cloudy
1:00 PM 41.0 °F 32.2 °F 23.0 °F 49% 30.10 in 9.0 mi WNW 18.4 mph - N/A   Overcast
1:43 PM 39.2 °F 31.6 °F 26.6 °F 61% 30.12 in 6.0 mi NW 12.7 mph 24.2 mph N/A Rain Light Rain
1:53 PM 37.4 °F 28.5 °F 26.6 °F 65% 30.13 in 9.0 mi WNW 15.0 mph 23.0 mph N/A   Overcast
2:00 PM 39 °F - 29 °F 57% 30.13 in 9 mi West 13.8 mph - -   Overcast
2:00 PM 39.2 °F 31.2 °F 28.4 °F 65% 30.13 in 9.0 mi West 13.8 mph 21.9 mph N/A   Overcast
2:28 PM 41.0 °F 33.1 °F 26.6 °F 57% 30.14 in 9.0 mi NW 15.0 mph 20.7 mph N/A Rain Light Rain
2:38 PM 39.2 °F 30.8 °F 24.8 °F 56% 30.14 in 9.0 mi NW 15.0 mph 21.9 mph N/A   Overcast
3:00 PM 39.2 °F 31.2 °F 23.0 °F 52% 30.15 in 9.0 mi NNW 13.8 mph 20.7 mph N/A   Overcast
3:41 PM 37.4 °F 27.8 °F 26.6 °F 65% 30.18 in 4.0 mi WNW 17.3 mph 24.2 mph N/A   Haze
3:46 PM 37.4 °F 32.1 °F 26.6 °F 65% 30.17 in 3.0 mi WNW 6.9 mph 24.2 mph N/A Rain Light Rain
3:51 PM 37.4 °F 30.8 °F 26.6 °F 65% 30.17 in 7.0 mi WNW 9.2 mph 20.7 mph N/A Rain Light Rain
3:57 PM 37.4 °F 31.4 °F 24.8 °F 60% 30.17 in 9.0 mi WNW 8.1 mph - N/A   Overcast
4:00 PM 39.2 °F 33.6 °F 26.6 °F 61% 30.17 in 9.0 mi WNW 8.1 mph - N/A   Overcast
4:33 PM 37.4 °F 29.8 °F 24.8 °F 60% 30.19 in 9.0 mi NW 11.5 mph 25.3 mph N/A Rain Light Rain
4:42 PM 37.4 °F 28.9 °F 24.8 °F 60% 30.19 in 9.0 mi WNW 13.8 mph - N/A   Mostly Cloudy
5:00 PM 38 °F - 24 °F 45% 30.21 in 10 mi WNW 11.5 mph - -   Overcast
5:00 PM 37.4 °F 29.8 °F 24.8 °F 60% 30.20 in 9.0 mi WNW 11.5 mph 18.4 mph N/A   Overcast
6:00 PM 37.4 °F 29.8 °F 24.8 °F 60% 30.24 in 9.0 mi WNW 11.5 mph 17.3 mph N/A   Overcast
7:00 PM 33.8 °F 28.6 °F 26.6 °F 75% 30.27 in 9.0 mi West 5.8 mph - N/A   Mostly Cloudy
8:00 PM 32.0 °F 27.5 °F 26.6 °F 80% 30.29 in 9.0 mi West 4.6 mph - N/A   Mostly Cloudy
9:00 PM 30.2 °F 24.3 °F 26.6 °F 86% 30.31 in 9.0 mi SW 5.8 mph - N/A   Mostly Cloudy
10:00 PM 30.2 °F 25.4 °F 24.8 °F 80% 30.33 in 9.0 mi WSW 4.6 mph - N/A   Clear
11:00 PM 29 °F - 24 °F 75% 30.34 in 10 mi WSW 5.8 mph - -  
11:00 PM 28.4 °F 21.2 °F 24.8 °F 86% 30.34 in 9.0 mi WSW 6.9 mph - N/A   Clear